TimeCDT,TemperatureF,Dew PointF,Humidity,Sea Level PressureIn,VisibilityMPH,Wind Direction,Wind SpeedMPH,Gust SpeedMPH,PrecipitationIn,Events,Conditions,WindDirDegrees,DateUTC
12:56 AM,64.9,50.9,60,30.17,10.0,Variable,4.6,-,N/A,,Clear,0,2013-05-02 05:56:00
1:56 AM,59.9,52.0,75,30.16,10.0,ENE,4.6,-,N/A,,Clear,70,2013-05-02 06:56:00
2:56 AM,59.9,52.0,75,30.17,10.0,ESE,3.5,-,N/A,,Clear,110,2013-05-02 07:56:00
3:56 AM,55.9,52.0,87,30.17,10.0,Calm,Calm,-,N/A,,Partly Cloudy,0,2013-05-02 08:56:00
4:56 AM,54.0,52.9,96,30.18,10.0,Calm,Calm,-,N/A,,Mostly Cloudy,0,2013-05-02 09:56:00
5:56 AM,52.0,52.0,100,30.19,10.0,Calm,Calm,-,N/A,,Clear,0,2013-05-02 10:56:00
6:56 AM,54.9,54.0,97,30.21,10.0,Calm,Calm,-,N/A,,Clear,0,2013-05-02 11:56:00
7:56 AM,59.0,55.9,90,30.22,10.0,Calm,Calm,-,N/A,,Clear,0,2013-05-02 12:56:00
8:56 AM,64.9,55.9,73,30.23,10.0,Calm,Calm,-,N/A,,Clear,0,2013-05-02 13:56:00
9:56 AM,68.9,54.9,61,30.23,10.0,ESE,6.9,-,N/A,,Clear,110,2013-05-02 14:56:00
10:56 AM,68.0,54.9,63,30.24,10.0,SE,6.9,-,N/A,,Partly Cloudy,140,2013-05-02 15:56:00
11:56 AM,70.9,54.9,57,30.22,10.0,Calm,Calm,-,N/A,,Clear,0,2013-05-02 16:56:00
12:56 PM,72.0,54.9,55,30.21,10.0,Variable,4.6,-,N/A,,Partly Cloudy,0,2013-05-02 17:56:00
1:56 PM,73.9,54.9,51,30.19,10.0,South,9.2,-,N/A,,Clear,190,2013-05-02 18:56:00
2:56 PM,74.8,56.8,53,30.17,10.0,ESE,5.8,-,N/A,,Clear,110,2013-05-02 19:56:00
3:56 PM,74.8,54.9,50,30.15,10.0,ENE,5.8,-,N/A,,Clear,70,2013-05-02 20:56:00
4:56 PM,75.9,56.8,51,30.13,10.0,NNE,3.5,-,N/A,,Clear,30,2013-05-02 21:56:00
5:56 PM,74.8,55.9,52,30.12,10.0,ESE,6.9,-,N/A,,Mostly Cloudy,120,2013-05-02 22:56:00
6:56 PM,72.0,56.8,59,30.12,10.0,ENE,3.5,-,N/A,,Partly Cloudy,60,2013-05-02 23:56:00
7:56 PM,63.9,56.8,78,30.12,10.0,ENE,3.5,-,N/A,,Clear,70,2013-05-03 00:56:00
8:56 PM,63.0,57.9,84,30.13,10.0,Calm,Calm,-,N/A,,Partly Cloudy,0,2013-05-03 01:56:00
9:56 PM,66.9,55.9,68,30.13,10.0,SE,6.9,-,N/A,,Partly Cloudy,140,2013-05-03 02:56:00
10:56 PM,66.9,55.9,68,30.13,10.0,SSE,5.8,-,N/A,,Overcast,150,2013-05-03 03:56:00
11:56 PM,66.9,54.9,65,30.12,10.0,SSE,6.9,-,N/A,,Overcast,150,2013-05-03 04:56:00